Find Starlink 34188

NORAD ID: 64183 Int'l Des: 2025-113 Owner: SPXS Country: US Constellation: starlink operational
LEOCIRCULAR

Current View

Loading 3D Globe...

About Starlink 34188

Description loading...

Upcoming Passes

Passes for default location (London). Set your location on the main map for personalized predictions.

Altitude History

Loading altitude history...

Two-Line Element Set

1 64183U 25113P 26151.08531448 .00025456 00000-0 82880-3 0 9993
2 64183 53.1617 68.1702 0001003 134.8993 225.2090 15.31718826 57680
Epoch: May 31, 2026 • Age: 11 hours

Current Status

Altitude 471.1 km
Velocity 7.63 km/s
Sub-Earth Point 11.12°N, 10.64°W
Launch Date May 28, 2025
Age 1 years
Type internet

Technical Details

Classification Payload
Mass 575.00 kg
Dry Mass 530.00 kg
Total Mass 575.00 kg
Length 0.30 m
Diameter 4.10 m
Span 29.00 m
Shape Box + pan
Manufacturer SPXS
Bus Type Starlink V2MO
Phase Status In Orbit
Owner/State SPXS/US

Most Searched